Tracking 19847 objects as of 16-Sep-2019
HD Live streaming from Space Station
objects crossing your sky now

FENGYUN 1C DEB

Track FENGYUN 1C DEB now!
10-day predictions


NORAD ID: 31912
Int'l Code: 1999-025CLP
Perigee: 769.8 km
Apogee: 1,605.4 km
Inclination: 98.8 °
Period: 109.0 minutes
Semi major axis: 7558 km
RCS: 0.0133 m2 (small)
Launch date: May 10, 1999
Source: People's Republic of China (PRC)
Launch site: Taiyaun Space Center, China (TSC)

Note: This is SATELLITE DEBRIS
aabbcc
Your satellite tracking list
Your tracking list is empty




NASA's NSSDC Master Catalog

Two Line Element Set (TLE):
1 31912U 99025CLP 19258.34620483 -.00000070  00000-0 -41173-4 0  9995
2 31912  98.8300 303.1426 0552706  45.4516 319.0393 13.21117143590562
Source of the keplerian elements: AFSPC